Regional Weather Roundup
Issued by NWS Sterling, VA

Home | Current Version | Previous Version | Text Only | Print | Product List | Glossary Off
Versions: 1 2 3 4 5 6 7 8 9 10 11 12 13 14 15 16 17 18 19 20 21 22 23 24 25 26 27 28 29 30 31 32 33 34 35 36 37 38 39 40 41 42 43 44 45 46 47 48 49 50

000
ASUS41 KLWX 052210
RWRLWX

REGIONAL WEATHER ROUNDUP
NATIONAL WEATHER SERVICE BALTIMORE MD/WASHINGTON DC
500 PM EST THU MAR 05 2015

Note: "FAIR" indicates few or no clouds below 12,000 feet
with no significant weather and/or obstructions to visibility.
 TC=TEMPERATURE CELSIUS

 * =Non NWS site. Station does not report precipitation (e.g. rain,
    snow, etc.), thunder, or fog.

DCZ001-MDZ009-015-VAZ040>042-051-053>054-052300-
WASHINGTON METRO

CITY           SKY/WX    TMP DP  RH WIND       PRES   REMARKS
WASHINGTON NAT LGT SNOW  29  24  82 N13       30.25R VSB 1   WCI  19
DULLES         LGT SNOW  24  20  84 N9        30.24R FOG     WCI  14
ANDREWS AFB    LGT SNOW  25  23  93 N15       30.23R FOG     WCI  12
FT BELVOIR     LGT SNOW  27  23  86 NW10      30.25S FOG     WCI  17
QUANTICO       LGT SNOW  27  23  85 N12G18    30.26R VSB 3/4 WCI  17
COLLEGE PARK*  CLOUDY    28  25  86 N6        30.24R
LEESBURG*      FLURRIES  27  27 100 N12       30.26R WCI  16
MANASSAS*      LGT SNOW  27  27 100 N18       30.26R WCI  13
GAITHERSBURG*  PTSUNNY   23  19  86 CALM      30.26R

$$

MDZ006>007-011-014-052300-
BALTIMORE METRO

CITY           SKY/WX    TMP DP  RH WIND       PRES   REMARKS
BWI AIRPORT    LGT SNOW  24  21  88 N6        30.23R FOG
MD SCIENCE CTR   N/A     24  19  81 MISG      30.26R
MARTIN STATE   LGT SNOW  25  23  93 N10       30.28R VSB 3/4 WCI  15
ANNAPOLIS      SNOW      26  23  88 N12       30.25R VSB 1/2 WCI  16
FORT MEADE*      N/A     25  23  93 CALM      30.29R

$$

MDZ012-015-019>023-052300-
MARYLAND EASTERN SHORE

CITY           SKY/WX    TMP DP  RH WIND       PRES   REMARKS
OCEAN CITY     MIX PCPN  29  27  92 N16       30.15R FOG     WCI  17
SALISBURY      HVY SNOW  30  26  85 N12G21    30.17R VSB 1/4 WCI  20
BAY BRIDGE AP* LGT SNOW  27  23  86 N10G18    30.25R VSB 1   WCI  17
CAMBRIDGE*     CLOUDY    30  28  93 N12G17    30.20R VSB 3/4 WCI  21
EASTON*        SNOW      27  27 100 N12G23    30.26R VSB 1/2 WCI  16

$$

MDZ017>025-052300-
SOUTHERN MARYLAND

CITY           SKY/WX    TMP DP  RH WIND       PRES   REMARKS
PATUXENT RIVER HVY SNOW  28  26  92 N18       30.19R VSB 1/4 WCI  15
ST INIGOES     SNOW      30  26  85 N12       30.17F VSB 1/4 WCI  20
LEONARDTOWN*   CLOUDY    28  27  93 CALM      30.22R VSB 1/4

$$

MDZ003>005-052300-
NORTH CENTRAL MARYLAND

CITY           SKY/WX    TMP DP  RH WIND       PRES   REMARKS
FREDERICK*     LGT SNOW  27  19  74 N5        30.29R
HAGERSTOWN APT CLOUDY    22  13  68 NW10      30.26R WCI  11
WESTMINSTER*   FLURRIES  19  16  86 N6        30.24R

$$

MDZ501>502-052300-
WESTERN MARYLAND

CITY           SKY/WX    TMP DP  RH WIND       PRES   REMARKS
OAKLAND*       FOG       10 N/A N/A NW9       30.12R VSB 1/2 WCI  -2
CUMBERLAND*    CLOUDY    23   9  54 N8        30.33R WCI  14

$$

VAZ025>031-052300-
SHENANDOAH VALLEY

CITY           SKY/WX    TMP DP  RH WIND       PRES   REMARKS
WINCHESTER*    CLOUDY    27  19  74 N9        30.25R WCI  17
FRONT ROYAL*   CLOUDY    25  21  86 CALM      30.23S
LURAY*         LGT SNOW  27  27 100 NE3       30.22R
NEW MARKET*    CLOUDY    24  20  84 NE6       30.22R
STAUNTON*      CLOUDY    25  21  85 N10       30.21R WCI  15
WAYNESBORO*    CLOUDY    24  22  92 N8        30.17R WCI  15

$$

WVZ021-048>050-054>055-052300-
EASTERN WEST VIRGINIA PANHANDLE

CITY           SKY/WX    TMP DP  RH WIND       PRES   REMARKS
MARTINSBURG    CLOUDY    24  16  71 N6        30.27R
PETERSBURG*    NOT AVBL

$$

VAZ036>039-050-052300-
CENTRAL FOOTHILLS

CITY           SKY/WX    TMP DP  RH WIND       PRES   REMARKS
CHARLOTTESVILL CLOUDY    27  23  85 N8        30.22R FOG     WCI  19
CULPEPER*      FLURRIES  27  21  80 N8        30.24  WCI  18
ORANGE*        CLOUDY    28  27  93 NW9       30.24R WCI  20
GORDONSVILLE*  CLOUDY    26  22  86 N8        30.23R WCI  17
WARRENTON*     FLURRIES  27  26  94 NW8       30.23F WCI  19

$$

VAZ055>057-052300-
NORTH AND CENTRAL PIEDMONT

CITY           SKY/WX    TMP DP  RH WIND       PRES   REMARKS
FREDERICKSBRG* SNOW      28  28 100 NW13      30.23R VSB 1/2 WCI  18
STAFFORD*      LGT SNOW  26  32 100 CALM      30.28R

$$

NCZ024-NYZ072-PAZ021-071-VAZ022-071-052300-
OTHER REGIONAL OBSERVATIONS

CITY           SKY/WX    TMP DP  RH WIND       PRES   REMARKS
NEW YORK CITY  SNOW      20  16  84 NW9       30.22R VSB 1/2 WCI   9
PHILADELPHIA   SNOW      20  16  84 N13       30.25R VSB 1/2 WCI   7
PITTSBURGH     CLOUDY    16  -1  47 N13       30.31R WCI   2
ROANOKE        CLOUDY    32  26  78 N6        30.19R HAZE
RICHMOND       LGTSLEET  31  27  85 N18G28    30.17R FOG     WCI  19
RALEIGH        LGT RAIN  37  33  85 NE9G22    30.08R FOG

$$

ANZ530>537-052300-
MARINE OBSERVATIONS

STATION/POSITION TIME  TEMP    WIND        PRES
                       AIR SEA DIR/SP/G
                 (UTC) (F)     (DEG/KT/KT) (MB)
THOMAS PT LIGHT  2200          360/ 20/ 23   N/A
BALT KEY BRIDGE  2100   24     360/ 11/ 12 1023.0R
COVE POINT       2100   28      30/ 11/ 15 1020.8F
LEWISETTA        2100   30 34   20/  3/  6 1021.2R
SOLOMONS ISLAND  2100      33                N/A

$$



USA.gov is the U.S. government's official web portal to all federal, state and local government web resources and services.